CZ-6A DEB

Satellite information

Favourite Embed

Satellite Type and Status

DEBRISIN ORBIT

Key statistics

Satellite CZ-6A DEB at a glance.

Uptime

1129

Days in orbit

Revolutions

≈ 14.1

Per day

Orbit

SSO

Sun Synchronous Orbit

Inclination

98.8

Latest

Satellite identification and parameters

Extended collection of information and parameters for CZ-6A DEB.

Object identification

Identified? True

Debris? True

Object name: CZ-6A DEB

International designator: 2022-151AAW

Object number (NORAD): 55898

Object ID (CCSDS): 55898

Country: PEOPLES REPUBLIC OF CHINA (PRC)

Current information (Y/N): Y

RCS size: SMALL

Orbital parameters

Period: 101.869 minutes

Inclination: 98.8198 deg

SMA: 7225.296 km

Apoapsis: 888.521 km

Periapsis: 805.8 km

RAAN: 345.9516 deg

Eccentricy: 0.00572439

Argument of periapsis: 164.2943 deg

Mean anomaly: 196.0022 deg

Mean motion: 14.13576498 rev/day

Mean motion (dot): 0.00001928 rev/day2

B* drag term: 0.0010294131 1/REarth

Two-line elements (TLE)

Creation date: Dec. 13, 2025, 5:47 p.m.

Reference frame: TEME

Reference center: EARTH

Epoch: Dec. 13, 2025, 5:27 a.m. UTC

TLE line 0: 0 CZ-6A DEB

TLE line 1: 1 55898U 22151AAW 25347.22746568 .00001928 00000-0 10294-2 0 9995

TLE line 2: 2 55898 98.8198 345.9516 0057244 164.2943 196.0022 14.13576498152628

Live tracking on map

Real-time ground track for satellite CZ-6A DEB.

In-orbit conjunctions

A list of the most updated potential collisions computed for object CZ-6A DEB.

Target Orbit TCA Probability of collision Miss distance Type
FENGYUN 1C DEB SSO 2025-08-26 06:40:57 0.000585242 68.0 (m) DEBRIS
GGSE 2 LEO 2025-04-29 01:52:47 0.0001136538 455.0 (m) PAYLOAD
CZ-6A DEB SSO 2025-03-21 19:13:32 0.0001628267 309.0 (m) DEBRIS
NOAA 11 SSO 2024-07-28 14:00:38 0.0005997118 401.0 (m) PAYLOAD

Associated space launch

Chinese satellite reported for atmospheric/ocean/environmental/spatial parameter research purposes, details TBD.

CZ-6A DEB was lifted into orbit during the mission ‘Long March 6A | Yunhai 3’, on board a Long March 6A space rocket.

The launch took place on Nov. 11, 2022, 10:52 p.m. from Launch Complex 9A.

For more information about the launch, click the button.

Launch to space Long March 6A | Yunhai 3
Long March 6A | Yunhai 3

Agency: N/A

Status: Launch Successful

Launch date: Nov. 11, 2022, 10:52 p.m. UTC

Rocket: Long March 6A

Launch pad: Launch Complex 9A

Location: Taiyuan Satellite Launch Center, People's Republic of China

...

Latest news about this satellite

There are no fresh news available about this satellite. Check back as we update our databases every day.


Newsletter sign-up

Weekly statistics, charts and insights to help you stay on top of the space industry.